Regional Weather Roundup
Issued by NWS Northern Indiana

Home | Current Version | Previous Version | Graphics & Text | Print | Product List | Glossary On
Versions: 1 2 3 4 5 6 7 8 9 10 11 12 13 14 15 16 17 18 19 20 21 22 23 24 25 26 27 28 29 30 31 32 33 34 35 36 37 38 39 40 41 42 43 44 45 46 47 48 49 50
000
ASUS43 KIWX 052100
RWRIWX

KIWX WEATHER ROUNDUP
NATIONAL WEATHER SERVICE NORTHERN INDIANA
500 PM EDT TUE MAY 05 2015

NOTE: "FAIR" INDICATES FEW OR NO CLOUDS BELOW 12,000 FEET WITH NO
SIGNIFICANT WEATHER AND/OR OBSTRUCTIONS TO VISIBILITY.

* THESE STATIONS ARE NOT UNDER NWS QUALITY CONTROL. THEY ALSO MAY NOT
  REPORT WEATHER SUCH AS PRECIPITATION OR FOG.

INZ001>027-052200-
NORTHERN INDIANA

CITY           SKY/WX    TMP DP  RH WIND       PRES   REMARKS
GARY*          FOG       52 N/A N/A N6        30.20F VSB 3/4
SOUTH BEND     CLOUDY    61  57  87 NE8       30.20F
ELKHART*       CLOUDY    57  55  94 NE10      30.22F FOG
GOSHEN         CLOUDY    63  60  90 NE14      30.19F FOG
ANGOLA*        CLOUDY    57  46  67 NE6       30.22F
FORT WAYNE     PTSUNNY   78  60  53 SW12      30.16F

$$
INZ028>050-052200-
CENTRAL INDIANA

CITY           SKY/WX    TMP DP  RH WIND       PRES   REMARKS
LAFAYETTE      MOSUNNY   82  51  34 SW10      30.12F
KOKOMO*        SUNNY     82  55  39 SW15      30.15F
MUNCIE*        MOSUNNY   81  53  37 W6        30.17F
INDIANAPOLIS   MOSUNNY   80  52  37 SW15      30.15F

$$
MIZ043>046-050>051-056>058-064>065-071>073-077>080-052200-
SOUTHWEST LOWER MICHIGAN

CITY           SKY/WX    TMP DP  RH WIND       PRES   REMARKS
BATTLE CREEK   LGT RAIN  50  47  89 NE10      30.27F
BENTON HARBOR  CLOUDY    56  53  90 NE8       30.21F
COLDWATER*     CLOUDY    53  50  92 NE10      30.24F FOG
HILLSDALE*     CLOUDY    54  54  99 NE6       30.25F FOG
HOLLAND        LGT RAIN  51  49  92 E10       30.27F
GRAND RAPIDS   CLOUDY    51  48  89 E10G28    30.28S
KALAMAZOO      LGT RAIN  50  47  89 NE9       30.26F
STURGIS*       CLOUDY    54  54 100 NE9       30.22F FOG
THREE RIVERS*  CLOUDY    53  50  92 NE7       30.24F

$$
OHZ001>008-015>018-024>025-052200-
NORTHWEST OHIO

CITY           SKY/WX    TMP DP  RH WIND       PRES   REMARKS
DEFIANCE       PTSUNNY   64  57  78 NE13      30.21F
FINDLAY        PTSUNNY   71  61  70 NE14      30.20F
TOLEDO EXPRESS CLOUDY    58  51  78 NE12      30.24F
TOLEDO METCALF CLOUDY    54  48  80 NE9       30.26F
LIMA           PTSUNNY   78  58  49 W9        30.19F

$$
AND FOR LAKE MICHIGAN COASTAL AND OPEN LAKE BUOY OBSERVATIONS

STATION/POSITION TEMP    WIND        PRES    VSBY  WAVE
                 AIR SEA DIR/SP/G                  HT/PER
                 (F)     (DEG/KT/KT) (MB)    (MI)  (FT/S)
CALUMET HARBOR    47     350/  6/  8   N/A
MICHIGAN CITY     53      40/ 10/ 11   N/A
BURNS HARBOR      52      50/  7/  8 1022.7F
SAINT JOSEPH      57      40/  3/  8 1024.4R
4 MI NW BRIDGMAN  53 49  100/ 10/ 14   N/A           1/ 3
MICHIGAN CITY     51 50   60/ 10/ 12   N/A           2/ 4
MICHIGAN CITY CG                     1025.6   1 1/4

$$
&&



USA.gov is the U.S. government's official web portal to all federal, state and local government web resources and services.